Location: Goettingen
(51.5300°N, 9.9433°E)
Time: 11:03:40
(UTC+01:00)

ISS - Pass Details

Date: 25 March 2023
Orbit: 414 x 423 km, 51.6° (Epoch: 20 March)

Event Time Altitude Azimuth Distance (km) Brightness Sun altitude
Rises 19:28:20 0° 269° (W) 2,359 1.9 -8.1°
Reaches altitude 10° 19:30:25 10° 270° (W) 1,494 0.6 -8.4°
Maximum altitude 19:33:47 86° 356° (N) 423 -3.8 -8.9°
Enters shadow 19:36:45 13° 89° (E) 1,336 -1.8 -9.3°
